カタログに戻る

NAVSTAR 82

USA 343

運用中ナビゲーションHEO
NORAD 55268·PAYLOAD·🇺🇸 United States

打ち上げ Jan 18, 2023 から Cape Canaveral Space Force Station

Loading…

次のパス (今後24時間)

TLE

最新Source: CelesTrak SupGP

元期: Sep 16, 2026, 16:44 UTC

1 55268C 23009A   26259.69756944  .00000000  00000+0  00000+0 0  2591
2 55268  55.1291 144.9207 0005719 331.0710  32.5697  2.00565388    15

AllMySatでNAVSTAR 82をリアルタイム追跡

Download on the App Store